SNAP-3 EDDIE

Last updated on Thu Nov 21 2024 00:03:39 GMT+0000 (Coordinated Universal Time)

1 40972U 15058J 24325.59432980 .00026455 00000+0 14478-2 0 9994 2 40972 64.7636 185.3313 0138158 254.8833 103.6969 15.06302506 31353
UTC large
Height (km)
Speed (km/s)
/
Latitude / Longitude
Inclination (degrees)
Orbital Period (minutes)
Azimuth
Elevation
Range (km)
Doppler Factor

Next 0 passes for location: London (51.5072 / 0.1276)

Sorry there are no passes over London.